sat.trackr.live / text

‹ back to catalog

TJS-26A

NORAD 69674 · 2026-144A

PAYLOAD ACTIVE UNKNOWN

§ Identity

Operator
Country
PRC
Launch date
2026-06-23
Launch site
WSC
Launch vehicle
Mass (kg)
RCS (m²)

External: N2YO · Heavens-Above · Gunter

§ Orbital elements

Epoch: 2026-09-19T19:51:52.003872Z

Period
1,436.09 min
Inclination
6.8550°
Eccentricity
0.0006045
Mean motion
1.00272507 rev/d
Perigee alt
35,760.9 km
Apogee alt
35,811.9 km
Semi-major
42,164.5 km
B*
0.0000e+0
RAAN
323.2091°
Arg perigee
339.9507°
Mean anomaly
101.0837°
Rev number
89

§ Raw data

TJS-26A1 69674U 26144A   26262.82768523 -.00000352  00000+0  00000+0 0  99972 69674   6.8550 323.2091 0006045 339.9507 101.0837  1.00272507   890

JSON: /api/v1/satellites/69674 · /tle

For live sub-satellite position, see the globe view (requires WebGL).

§ Visibility from observer

Set your observer location to see the next 7 days of passes ≥ 10°. The values pass through the URL so the page stays shareable.

No JS? Fill the form by hand. The geolocation button needs JavaScript.